This demonstration page uses our WeatherBlox Daily Observations layout. Learn more.

Left ArrowRight Arrow

Hourly Observations for May 24, 2022

Temp ( °F °C ) Dew Point ( °F °C ) Humidity (%) Winds ( mph kmh ) Pressure ( in mb ) Visibility ( mi km ) Precip ( " mm )
12:53 am 00:53 Cloudy with Heavy Rain 53 11.7 52 11.1 96 96 NNE 8 13 30.02 1017 2 2 0.19 4.83
1:41 am 01:41 Cloudy with Heavy Rain 53 11.7 52 11.1 96 96 NE 10 17 30.00 1016 3 5 0.28 7.11
1:53 am 01:53 Cloudy with Rain 53 11.7 52 11.1 96 96 ENE 9 15 29.99 1016 3 5 0.36 9.14
2:48 am 02:48 Cloudy with Rain 54 12 52 11 94 94 ENE 12 19 29.97 1015 3 5 0.19 4.83
2:53 am 02:53 Cloudy with Rain 53 11.7 52 11.1 96 96 ENE 9 15 29.96 1015 3 5 0.21 5.33
3:53 am 03:53 Cloudy with Rain 54 12.2 53 11.7 97 97 E 16 26 29.92 1013 3 5 0.23 5.84
4:27 am 04:27 Cloudy with Heavy Rain 54 12.2 53 11.7 97 97 NE 10 17 29.93 1014 3 5 0.13 3.30
4:50 am 04:50 Cloudy with Rain 54 12 54 12 100 100 ENE 12 19 29.92 1013 2 3 0.31 7.87
4:53 am 04:53 Cloudy with Rain 54 12.2 53 11.7 97 97 ENE 9 15 29.91 1013 2 3 0.33 8.38
5:39 am 05:39 Cloudy with Rain 55 12.8 54 12.2 96 96 ENE 8 13 29.90 1012 3 5 0.15 3.81
5:53 am 05:53 Cloudy with Rain 55 12.8 54 12.2 96 96 ENE 8 13 29.88 1012 3 5 0.20 5.08
6:24 am 06:24 Cloudy with Heavy Rain 55 12.8 55 12.8 100 100 ENE 5 7 29.90 1012 1 1 0.20 5.08
6:53 am 06:53 Cloudy with Heavy Rain 56 13.3 55 12.8 97 97 ENE 9 15 29.87 1012 1 1 0.47 11.94
7:16 am 07:16 Cloudy with Rain 56 13.3 55 12.8 97 97 ENE 13 20 29.86 1011 1 2 0.11 2.79
7:53 am 07:53 Cloudy with Rain 56 13.3 55 12.8 97 97 NE 13 20 29.84 1011 2 3 0.20 5.08
8:53 am 08:53 Cloudy with Heavy Rain 56 13.3 56 13.3 100 100 ENE 10 17 29.84 1010 1 2 0.37 9.40
9:53 am 09:53 Cloudy with Rain 57 13.9 56 13.3 96 96 ENE 12 19 29.80 1009 2 3 0.27 6.86
10:53 am 10:53 Cloudy with Light Rain 59 15 58 14.4 96 96 ESE 16 26 29.75 1008 2 3 0.19 4.83
11:53 am 11:53 Cloudy with Rain 60 15.6 58 14.4 93 93 ESE 18 30 29.71 1006 5 8 0.10 2.54
12:53 pm 12:53 Cloudy with Light Rain 61 16.1 59 15 93 93 SE 15 24 29.73 1007 3 5 0.02 0.51
1:02 pm 13:02 Cloudy with Rain 61 16.1 59 15 93 93 SE 14 22 29.72 1006 2 3 0.01 0.25
1:12 pm 13:12 Cloudy with Light Rain 61 16.1 59 15 93 93 SE 15 24 29.72 1006 5 8 0.03 0.76
1:53 pm 13:53 Cloudy with Light Rain 62 16.7 60 15.6 93 93 SE 13 20 29.70 1006 3 5 0.06 1.52
1:56 pm 13:56 Cloudy with Light Rain 62 16.7 60 15.6 93 93 SE 12 19 29.69 1005 3 4 0.00 0.00
2:09 pm 14:09 Cloudy with Light Rain 63 17.2 61 16.1 93 93 SE 13 20 29.69 1005 4 6 0.00 0.00
2:53 pm 14:53 Cloudy with Mist and Fog 64 17.8 61 16.1 90 90 SSE 13 20 29.67 1005 6 10 0.00 0.00
3:09 pm 15:09 Cloudy 64 17.8 61 16.1 90 90 SE 14 22 29.65 1004 10 16 0.01 0.25
3:49 pm 15:49 Cloudy 66 19 61 16 83 83 S 17 28 29.65 1004 10 16 0.01 0.25
3:53 pm 15:53 Cloudy 65 18.3 60 15.6 84 84 S 16 26 29.67 1005 10 16 0.01 0.25
4:18 pm 16:18 Cloudy 64 17.8 59 15 84 84 S 14 22 29.65 1004 10 16 0.00 0.00
4:53 pm 16:53 Cloudy 64 17.8 59 15 84 84 SSW 14 22 29.67 1005 10 16 0.00 0.00
5:53 pm 17:53 Cloudy 63 17.2 58 14.4 84 84 SSW 13 20 29.67 1005 10 16 0.00 0.00
6:53 pm 18:53 Cloudy 61 16.1 56 13.3 84 84 SW 15 24 29.69 1005 10 16 0.00 0.00
7:53 pm 19:53 Cloudy 59 15 55 12.8 87 87 SW 10 17 29.69 1006 10 16 0.00 0.00
8:03 pm 20:03 Cloudy 59 15 56 13.3 90 90 SW 10 17 29.70 1006 10 16 0.00 0.00
8:16 pm 20:16 Cloudy 59 15 55 12.8 87 87 SW 9 15 29.70 1006 10 16 0.00 0.00
8:24 pm 20:24 Cloudy 58 14.4 55 12.8 90 90 SW 10 17 29.69 1005 10 16 0.00 0.00
8:49 pm 20:49 Cloudy with Mist and Fog 57 14 55 13 94 94 SW 8 13 29.71 1006 3 4 0.00 0.00
8:53 pm 20:53 Cloudy with Drizzle 57 13.9 56 13.3 96 96 SW 8 13 29.70 1006 3 4 0.00 0.00
9:19 pm 21:19 Cloudy with Drizzle 57 13.9 56 13.3 96 96 SSW 7 11 29.71 1006 3 5 0.00 0.00
9:53 pm 21:53 Cloudy with Drizzle 57 13.9 56 13.3 96 96 SW 8 13 29.72 1006 3 4 0.00 0.00
10:06 pm 22:06 Cloudy with Drizzle 57 13.9 56 13.3 96 96 W 8 13 29.73 1007 5 8 0.00 0.00
10:53 pm 22:53 Cloudy with Drizzle 56 13.3 55 12.8 97 97 WSW 9 15 29.73 1007 4 6 0.00 0.00
11:53 pm 23:53 Cloudy with Drizzle 55 12.8 54 12.2 96 96 W 9 15 29.74 1007 3 5 0.00 0.00

Powered by AerisWeather